GORLA11 KLIT-KMEM

Flight info

Callsign GORLA11
Flight time N/A
Altitude 17500
Route KLIT KMEM
Aircraft F35/M-DILRTUV/S

Departure

Time 2026-04-21 02:37
Airport Bill & Hillary Clinton National Airport/Adams Field (KLIT)

Arrival

Time N/A
Airport Memphis International Airport (KMEM)
Time Latitude Longitude Altitude Speed Heading
2026-04-21 02:30 34.73632 -92.23998 265 ft 0 kts 265°
2026-04-21 02:35 34.73634 -92.24003 265 ft 2 kts 302°
2026-04-21 02:35 34.73665 -92.24006 265 ft 5 kts 26°
2026-04-21 02:35 34.73721 -92.23954 265 ft 15 kts 13°
2026-04-21 02:36 34.73823 -92.23948 265 ft 14 kts
2026-04-21 02:36 34.73921 -92.23942 265 ft 14 kts
2026-04-21 02:36 34.73970 -92.23904 265 ft 8 kts 81°
2026-04-21 02:36 34.73949 -92.23811 265 ft 12 kts 149°
2026-04-21 02:37 34.73458 -92.23830 266 ft 175 kts 181°
2026-04-21 02:37 34.71812 -92.23880 1565 ft 293 kts 181°
2026-04-21 02:37 34.70687 -92.22374 3681 ft 352 kts 58°
2026-04-21 02:37 34.72235 -92.19719 7172 ft 391 kts 54°
2026-04-21 02:38 34.73833 -92.17021 12999 ft 383 kts 53°
2026-04-21 02:38 34.75975 -92.14060 14574 ft 538 kts 45°
2026-04-21 02:38 34.77378 -92.09991 16216 ft 509 kts 80°
2026-04-21 02:38 34.77911 -92.05888 17707 ft 490 kts 80°
2026-04-21 02:39 34.78460 -92.01878 17638 ft 462 kts 79°
2026-04-21 02:39 34.78974 -91.98176 17534 ft 441 kts 79°
2026-04-21 02:39 34.79497 -91.94402 17531 ft 483 kts 79°
2026-04-21 02:39 34.80135 -91.89877 17509 ft 591 kts 79°
2026-04-21 02:40 34.80850 -91.84860 17489 ft 614 kts 79°
2026-04-21 02:40 34.81591 -91.79705 17502 ft 616 kts 79°
2026-04-21 02:40 34.82274 -91.74564 17497 ft 616 kts 80°
2026-04-21 02:40 34.82925 -91.69397 17483 ft 617 kts 80°
2026-04-21 02:41 34.83576 -91.64221 17505 ft 616 kts 80°
2026-04-21 02:41 34.84224 -91.59055 17492 ft 617 kts 80°
2026-04-21 02:41 34.84864 -91.53950 17462 ft 617 kts 80°
2026-04-21 02:41 34.85514 -91.48763 17470 ft 618 kts 80°
2026-04-21 02:42 34.86162 -91.43591 17530 ft 617 kts 80°
2026-04-21 02:42 34.86809 -91.38422 17580 ft 617 kts 80°
2026-04-21 02:42 34.87459 -91.33229 17576 ft 618 kts 80°
2026-04-21 02:42 34.88101 -91.28095 17510 ft 619 kts 80°
2026-04-21 02:43 34.88752 -91.22909 17509 ft 618 kts 79°
2026-04-21 02:43 34.89688 -91.17794 17470 ft 616 kts 72°
2026-04-21 02:43 34.90993 -91.12874 17520 ft 616 kts 70°
2026-04-21 02:43 34.92370 -91.07933 17457 ft 617 kts 69°
2026-04-21 02:44 34.93766 -91.02958 17362 ft 617 kts 69°
2026-04-21 02:44 34.95154 -90.98011 17520 ft 616 kts 69°
2026-04-21 02:44 34.96547 -90.93053 17522 ft 616 kts 69°
2026-04-21 02:44 34.97921 -90.88174 17476 ft 617 kts 69°
2026-04-21 02:45 34.99445 -90.83297 17497 ft 616 kts 66°
2026-04-21 02:45 35.01033 -90.78418 17475 ft 616 kts 66°
2026-04-21 02:45 35.02625 -90.73548 17504 ft 616 kts 66°